sat.trackr.live / text

‹ back to catalog

STARLINK-36320

NORAD 68090 · 2026-042X

PAYLOAD ACTIVE UNKNOWN

§ Identity

Operator
Country
US
Launch date
2026-03-04
Launch site
AFETR
Launch vehicle
Mass (kg)
RCS (m²)

Purposes: comms

External: N2YO · Heavens-Above · Gunter

§ Orbital elements

Epoch: 2026-05-25T04:00:03.998880Z

Period
93.85 min
Inclination
53.1594°
Eccentricity
0.0001232
Mean motion
15.34395576 rev/d
Perigee alt
461.9 km
Apogee alt
463.6 km
Semi-major
6,840.9 km
B*
4.5395e-5
RAAN
182.6339°
Arg perigee
90.8334°
Mean anomaly
3.3235°
Rev number
587

§ Raw data

STARLINK-363201 68090U 26042X   26145.16671295  .00001158  00000+0  45395-4 0  99962 68090  53.1594 182.6339 0001232  90.8334   3.3235 15.34395576  5873

JSON: /api/v1/satellites/68090 · /tle

For live sub-satellite position, see the globe view (requires WebGL).

§ Visibility from observer

Set your observer location to see the next 7 days of passes ≥ 10°. The values pass through the URL so the page stays shareable.

No JS? Fill the form by hand. The geolocation button needs JavaScript.